• en Belgique
  • Liste des pays
  • À 7 jours
  • Température de l'eau
  • Carte satellitaire
  • Carte météo
  • Widgets météo
  • user-avatar
    Se connecter

    Météo par heure à Elbasan

    Ce jour, 20 Août, Dimanche

    Heure Température Précipitation Vent Pression Humidité
    00:00 +25°C° 0 mm 1 m/s 735 mmHg 51%
    01:00 +25°C° 0 mm 1 m/s 734 mmHg 49%
    02:00 +24°C° 0 mm 1 m/s 734 mmHg 50%
    03:00 +24°C° 0 mm 1 m/s 734 mmHg 50%
    04:00 +24°C° 0 mm 1 m/s 734 mmHg 50%
    05:00 +25°C° 0 mm 1 m/s 734 mmHg 47%
    06:00 +27°C° 0 mm 1 m/s 734 mmHg 43%
    07:00 +30°C° 0 mm 1 m/s 734 mmHg 38%
    08:00 +31°C° 0 mm 1 m/s 734 mmHg 33%
    09:00 +34°C° 0 mm 2 m/s 734 mmHg 28%
    10:00 +35°C° 0 mm 2 m/s 734 mmHg 23%
    11:00 +36°C° 0 mm 3 m/s 734 mmHg 23%
    12:00 +36°C° 0 mm 3 m/s 734 mmHg 22%
    13:00 +36°C° 0 mm 4 m/s 734 mmHg 23%
    14:00 +36°C° 0 mm 4 m/s 733 mmHg 24%
    15:00 +35°C° 0 mm 4 m/s 733 mmHg 26%
    16:00 +35°C° 0 mm 4 m/s 733 mmHg 27%
    17:00 +31°C° 0 mm 3 m/s 733 mmHg 35%
    18:00 +29°C° 0 mm 2 m/s 733 mmHg 42%
    19:00 +26°C° 0 mm 1 m/s 733 mmHg 50%
    20:00 +26°C° 0 mm 1 m/s 733 mmHg 52%
    21:00 +25°C° 0 mm 1 m/s 733 mmHg 55%
    22:00 +22°C° 0 mm 0 m/s 733 mmHg 57%
    23:00 +24°C° 0,9 mm 1 m/s 733 mmHg 62%

    Demain, 21 Août, Lundi

    Heure Température Précipitation Vent Pression Humidité
    00:00 +23°C° 0,9 mm 2 m/s 733 mmHg 67%
    01:00 +22°C° 0,9 mm 3 m/s 733 mmHg 71%
    02:00 +21°C° 1,1 mm 2 m/s 733 mmHg 77%
    03:00 +21°C° 1,1 mm 2 m/s 733 mmHg 82%
    04:00 +21°C° 1,1 mm 2 m/s 733 mmHg 88%
    05:00 +21°C° 0,1 mm 2 m/s 733 mmHg 83%
    06:00 +23°C° 0,1 mm 2 m/s 733 mmHg 79%
    07:00 +24°C° 0,1 mm 2 m/s 733 mmHg 74%
    08:00 +26°C° 0,1 mm 2 m/s 733 mmHg 65%
    09:00 +28°C° 0,1 mm 2 m/s 733 mmHg 56%
    10:00 +30°C° 0,1 mm 2 m/s 733 mmHg 47%
    11:00 +30°C° 0,3 mm 2 m/s 733 mmHg 45%
    12:00 +31°C° 0,3 mm 3 m/s 733 mmHg 43%
    13:00 +31°C° 0,3 mm 3 m/s 733 mmHg 41%
    14:00 +31°C° 0,3 mm 3 m/s 733 mmHg 42%
    15:00 +30°C° 0,3 mm 4 m/s 733 mmHg 44%
    16:00 +30°C° 0,3 mm 4 m/s 732 mmHg 45%
    17:00 +28°C° 0,1 mm 3 m/s 733 mmHg 51%
    18:00 +26°C° 0,1 mm 3 m/s 733 mmHg 58%
    19:00 +24°C° 0,1 mm 3 m/s 733 mmHg 64%
    20:00 +22°C° 0 mm 3 m/s 733 mmHg 67%
    21:00 +23°C° 0 mm 2 m/s 734 mmHg 70%
    22:00 +21°C° 0 mm 2 m/s 734 mmHg 73%
    23:00 +20°C° 0 mm 2 m/s 734 mmHg 73%

    Après-demain, 22 Août, Mardi

    Heure Température Précipitation Vent Pression Humidité
    00:00 +20°C° 0 mm 2 m/s 734 mmHg 73%
    01:00 +19°C° 0 mm 2 m/s 734 mmHg 74%
    02:00 +19°C° 0 mm 2 m/s 734 mmHg 73%
    03:00 +18°C° 0 mm 3 m/s 734 mmHg 73%
    04:00 +18°C° 0 mm 3 m/s 734 mmHg 73%
    05:00 +19°C° 0 mm 3 m/s 735 mmHg 66%
    06:00 +20°C° 0 mm 3 m/s 735 mmHg 60%
    07:00 +22°C° 0 mm 3 m/s 735 mmHg 53%
    08:00 +24°C° 0 mm 3 m/s 735 mmHg 47%
    09:00 +26°C° 0 mm 3 m/s 735 mmHg 40%
    10:00 +28°C° 0 mm 3 m/s 735 mmHg 33%
    11:00 +29°C° 0 mm 3 m/s 735 mmHg 30%
    12:00 +30°C° 0 mm 3 m/s 735 mmHg 27%
    13:00 +31°C° 0 mm 3 m/s 735 mmHg 24%
    14:00 +31°C° 0 mm 3 m/s 734 mmHg 24%
    15:00 +32°C° 0 mm 4 m/s 734 mmHg 24%
    16:00 +32°C° 0 mm 4 m/s 734 mmHg 23%
    17:00 +28°C° 0 mm 4 m/s 734 mmHg 30%
    18:00 +25°C° 0 mm 3 m/s 734 mmHg 37%
    19:00 +21°C° 0 mm 3 m/s 734 mmHg 44%
    20:00 +21°C° 0 mm 2 m/s 735 mmHg 45%
    21:00 +20°C° 0 mm 2 m/s 735 mmHg 47%
    22:00 +19°C° 0 mm 2 m/s 735 mmHg 48%
    23:00 +19°C° 0 mm 2 m/s 735 mmHg 48%

    23 Août, Mercredi

    Heure Température Précipitation Vent Pression Humidité
    00:00 +18°C° 0 mm 2 m/s 735 mmHg 49%
    01:00 +18°C° 0 mm 2 m/s 735 mmHg 49%
    02:00 +18°C° 0 mm 2 m/s 735 mmHg 50%
    03:00 +17°C° 0 mm 2 m/s 735 mmHg 51%
    04:00 +17°C° 0 mm 2 m/s 735 mmHg 53%
    05:00 +19°C° 0 mm 2 m/s 736 mmHg 49%
    06:00 +20°C° 0 mm 2 m/s 736 mmHg 46%
    07:00 +23°C° 0 mm 2 m/s 736 mmHg 43%
    08:00 +25°C° 0 mm 2 m/s 736 mmHg 37%
    09:00 +28°C° 0 mm 1 m/s 737 mmHg 32%
    10:00 +30°C° 0 mm 1 m/s 737 mmHg 26%
    11:00 +31°C° 0 mm 2 m/s 737 mmHg 25%
    12:00 +32°C° 0 mm 2 m/s 736 mmHg 23%
    13:00 +33°C° 0 mm 3 m/s 736 mmHg 21%
    14:00 +33°C° 0 mm 3 m/s 736 mmHg 22%
    15:00 +32°C° 0 mm 4 m/s 736 mmHg 23%
    16:00 +32°C° 0 mm 4 m/s 736 mmHg 24%
    17:00 +28°C° 0 mm 3 m/s 736 mmHg 31%
    18:00 +25°C° 0 mm 2 m/s 736 mmHg 37%
    19:00 +23°C° 0 mm 1 m/s 736 mmHg 44%
    20:00 +22°C° 0 mm 1 m/s 737 mmHg 45%
    21:00 +21°C° 0 mm 1 m/s 737 mmHg 45%
    22:00 +21°C° 0 mm 1 m/s 737 mmHg 46%
    23:00 +21°C° 0 mm 1 m/s 737 mmHg 45%

    24 Août, Jeudi

    Heure Température Précipitation Vent Pression Humidité
    00:00 +19°C° 0 mm 2 m/s 737 mmHg 44%
    01:00 +19°C° 0 mm 2 m/s 737 mmHg 44%
    02:00 +19°C° 0 mm 2 m/s 737 mmHg 44%
    03:00 +18°C° 0 mm 2 m/s 737 mmHg 44%
    04:00 +18°C° 0 mm 2 m/s 737 mmHg 44%
    05:00 +20°C° 0 mm 2 m/s 737 mmHg 41%
    06:00 +23°C° 0 mm 2 m/s 738 mmHg 39%
    07:00 +24°C° 0 mm 2 m/s 738 mmHg 36%
    08:00 +27°C° 0 mm 2 m/s 738 mmHg 32%
    09:00 +29°C° 0 mm 1 m/s 738 mmHg 28%
    10:00 +31°C° 0 mm 1 m/s 738 mmHg 23%
    11:00 +32°C° 0 mm 2 m/s 738 mmHg 22%
    12:00 +34°C° 0 mm 2 m/s 738 mmHg 21%
    13:00 +35°C° 0 mm 3 m/s 738 mmHg 19%
    14:00 +35°C° 0 mm 3 m/s 737 mmHg 20%
    15:00 +34°C° 0 mm 3 m/s 737 mmHg 21%
    16:00 +34°C° 0 mm 3 m/s 737 mmHg 22%
    17:00 +30°C° 0 mm 3 m/s 737 mmHg 27%
    18:00 +27°C° 0 mm 2 m/s 737 mmHg 33%
    19:00 +24°C° 0 mm 1 m/s 737 mmHg 39%
    20:00 +24°C° 0 mm 1 m/s 737 mmHg 39%
    21:00 +23°C° 0 mm 1 m/s 737 mmHg 39%
    22:00 +23°C° 0 mm 1 m/s 738 mmHg 38%
    23:00 +22°C° 0 mm 1 m/s 738 mmHg 38%

    25 Août, Vendredi

    Heure Température Précipitation Vent Pression Humidité
    00:00 +21°C° 0 mm 2 m/s 737 mmHg 37%
    01:00 +21°C° 0 mm 2 m/s 737 mmHg 37%
    02:00 +21°C° 0 mm 2 m/s 737 mmHg 36%
    03:00 +20°C° 0 mm 2 m/s 737 mmHg 36%
    04:00 +20°C° 0 mm 2 m/s 737 mmHg 36%
    05:00 +23°C° 0 mm 2 m/s 738 mmHg 34%
    06:00 +24°C° 0 mm 2 m/s 738 mmHg 32%
    07:00 +26°C° 0 mm 2 m/s 738 mmHg 31%
    08:00 +28°C° 0 mm 1 m/s 738 mmHg 27%
    09:00 +31°C° 0 mm 1 m/s 738 mmHg 23%
    10:00 +33°C° 0 mm 1 m/s 738 mmHg 19%
    11:00 +35°C° 0 mm 2 m/s 738 mmHg 18%
    12:00 +36°C° 0 mm 2 m/s 738 mmHg 17%
    13:00 +37°C° 0 mm 3 m/s 738 mmHg 16%
    14:00 +36°C° 0 mm 3 m/s 737 mmHg 17%
    15:00 +36°C° 0 mm 3 m/s 737 mmHg 18%
    16:00 +35°C° 0 mm 3 m/s 737 mmHg 19%
    17:00 +31°C° 0 mm 2 m/s 737 mmHg 24%
    18:00 +28°C° 0 mm 1 m/s 737 mmHg 30%
    19:00 +25°C° 0 mm 1 m/s 737 mmHg 36%
    20:00 +25°C° 0 mm 1 m/s 737 mmHg 36%
    21:00 +24°C° 0 mm 1 m/s 737 mmHg 36%
    22:00 +24°C° 0 mm 1 m/s 737 mmHg 37%
    23:00 +23°C° 0 mm 1 m/s 737 mmHg 37%
    Voir plus